K4JOZ Weather Reports


time (UTC)temp
C
wind
direction
speed
KPH
gust
KPH
rain 1hr
cm
rain 24hr
cm
rain mn
cm
humidity
%
barometer
mb
20260509000749 20 0 0.0 1.6 0.00 0.03 0.03 44 1011.0
20260508235249 20 0 0.0 4.8 0.00 0.03 0.03 44 1010.8
20260508233749 20 273 3.2 4.8 0.00 0.03 0.03 43 1010.8
20260508232249 20 264 6.4 14.5 0.00 0.03 0.03 41 1010.8
20260508230749 20 281 9.7 16.1 0.00 0.03 0.03 39 1011.0
20260508225249 20 284 4.8 11.3 0.00 0.03 0.03 41 1011.1
20260508223749 20 279 6.4 9.7 0.00 0.03 0.03 42 1011.2
20260508222249 21 281 6.4 14.5 0.00 0.03 0.03 41 1011.3
20260508220749 20 276 3.2 9.7 0.00 0.03 0.03 40 1011.2
20260508215249 20 267 4.8 16.1 0.00 0.03 0.03 40 1011.4
20260508213749 21 202 3.2 8.0 0.00 0.03 0.03 40 1011.3
20260508212249 20 263 1.6 11.3 0.00 0.03 0.03 37 1011.1
20260508210749 20 281 6.4 12.9 0.00 0.03 0.03 38 1011.2
20260508205249 21 279 9.7 9.7 0.00 0.03 0.03 36 1011.3
20260508203749 20 330 12.9 12.9 0.00 0.03 0.03 35 1011.4
20260508202249 20 306 6.4 14.5 0.00 0.03 0.03 37 1011.6
20260508200749 20 228 3.2 8.0 0.00 0.03 0.03 35 1012.0
20260508195249 20 259 4.8 9.7 0.00 0.03 0.03 36 1012.6
20260508193749 20 198 11.3 17.7 0.00 0.03 0.03 36 1013.1
20260508192249 21 213 6.4 11.3 0.00 0.03 0.03 34 1013.2
20260508190749 20 360 1.6 6.4 0.00 0.03 0.03 30 1013.1
20260508185249 20 228 1.6 3.2 0.00 0.03 0.03 29 1013.5
20260508183749 19 178 4.8 4.8 0.00 0.03 0.03 35 1013.7
20260508182249 19 149 8.0 11.3 0.00 0.03 0.03 32 1013.9
20260508180749 19 124 3.2 8.0 0.00 0.03 0.03 34 1014.0
20260508175249 18 307 4.8 6.4 0.00 0.03 0.03 38 1014.2
20260508173749 18 114 1.6 6.4 0.00 0.03 0.03 39 1014.4
20260508172249 18 55 6.4 8.0 0.00 0.03 0.03 38 1014.8
20260508170749 17 320 4.8 8.0 0.00 0.03 0.03 48 1015.2
20260508165249 17 240 6.4 6.4 0.00 0.03 0.03 45 1015.5
20260508163749 17 95 9.7 14.5 0.00 0.03 0.03 50 1015.8
20260508162249 17 65 6.4 9.7 0.00 0.03 0.03 52 1016.0
20260508160749 16 194 1.6 4.8 0.00 0.03 0.03 49 1016.2
20260508155249 15 187 3.2 6.4 0.00 0.03 0.03 48 1016.6
20260508153749 15 294 6.4 8.0 0.00 0.03 0.03 54 1016.7
20260508152249 14 109 3.2 4.8 0.00 0.05 0.03 57 1017.0
20260508150749 13 168 3.2 6.4 0.00 0.08 0.03 57 1017.0
20260508145249 11 186 1.6 3.2 0.00 0.10 0.03 6 1017.1
20260508143749 10 203 3.2 3.2 0.00 0.10 0.03 1 1017.2
20260508142249 10 219 1.6 4.8 0.00 0.10 0.03 1 1017.3
20260508140749 9 126 3.2 3.2 0.00 0.13 0.03 1 1017.3
20260508135249 8 126 3.2 4.8 0.00 0.13 0.03 2 1017.4
20260508133749 7 0 0.0 3.2 0.00 0.13 0.03 2 1017.4
20260508132249 7 106 6.4 6.4 0.00 0.13 0.03 4 1017.3
20260508130749 6 47 3.2 4.8 0.00 0.13 0.03 5 1017.1
20260508125249 6 80 1.6 3.2 0.00 0.13 0.03 6 1017.2
20260508123749 5 80 3.2 3.2 0.00 0.13 0.03 7 1017.2
20260508122249 5 5 3.2 4.8 0.00 0.13 0.03 7 1017.1
20260508120749 4 113 3.2 6.4 0.00 0.13 0.03 8 1016.8
20260508115249 3 0 0.0 3.2 0.03 0.13 0.03 9 1016.7
20260508113749 3 199 1.6 1.6 0.03 0.13 0.03 11 1016.4
20260508112249 3 0 0.0 0.0 0.03 0.13 0.03 12 1016.2
20260508110749 2 0 0.0 0.0 0.03 0.13 0.03 14 1016.0
20260508105249 2 0 0.0 0.0 0.00 0.10 0.00 16 1015.8
20260508103749 3 0 0.0 0.0 0.00 0.10 0.00 15 1015.6
20260508102324 3 0 0.0 0.0 0.00 0.10 0.00 13 1015.5
20260508102249 3 0 0.0 0.0 0.00 0.10 0.00 13 1015.5
20260508100749 3 0 0.0 0.0 0.00 0.10 0.00 13 1015.2
20260508095249 3 0 0.0 0.0 0.00 0.13 0.00 13 1015.1
20260508093749 3 0 0.0 0.0 0.00 0.13 0.00 15 1015.0
20260508092249 3 0 0.0 0.0 0.00 0.13 0.00 16 1014.9
20260508090749 3 0 0.0 0.0 0.00 0.13 0.00 16 1014.9
20260508085249 3 0 0.0 0.0 0.00 0.13 0.00 15 1014.8
20260508083749 4 0 0.0 0.0 0.00 0.15 0.00 12 1014.6
20260508082249 4 0 0.0 0.0 0.00 0.15 0.00 14 1014.7
20260508080749 4 0 0.0 0.0 0.00 0.18 0.00 16 1014.7
20260508075249 5 0 0.0 0.0 0.00 0.18 0.00 13 1014.7
20260508073749 5 226 1.6 1.6 0.00 0.18 0.00 13 1014.6
20260508072320 5 0 0.0 0.0 0.00 0.18 0.00 14 1014.6
20260508072249 5 0 0.0 0.0 0.00 0.18 0.00 14 1014.6
20260508070749 6 0 0.0 0.0 0.00 0.18 0.00 12 1014.5
20260508065249 6 0 0.0 0.0 0.00 0.18 0.00 10 1014.5
20260508063749 6 0 0.0 0.0 0.00 0.18 0.00 10 1014.6
20260508062249 6 205 1.6 3.2 0.00 0.18 0.00 8 1014.6
20260508060749 6 0 0.0 0.0 0.00 0.18 0.00 11 1014.7
20260508055249 6 0 0.0 1.6 0.00 0.20 0.00 10 1014.7
20260508053749 5 150 1.6 4.8 0.00 0.20 0.00 14 1014.7
20260508052249 5 0 0.0 1.6 0.00 0.20 0.00 19 1014.6
20260508050749 6 0 0.0 3.2 0.00 0.20 0.00 16 1014.5
20260508045249 6 0 0.0 1.6 0.00 0.20 0.00 18 1014.4
20260508043749 6 0 0.0 1.6 0.00 0.20 0.00 18 1014.2
20260508042249 6 0 0.0 0.0 0.00 0.20 0.00 17 1014.0
20260508040749 6 0 0.0 3.2 0.00 0.20 0.00 20 1013.9
20260508035249 7 0 0.0 0.0 0.00 0.20 0.20 19 1013.7
20260508033749 7 0 0.0 0.0 0.00 0.20 0.20 18 1013.7
20260508032249 7 151 3.2 3.2 0.00 0.20 0.20 19 1013.5
20260508030749 7 151 1.6 1.6 0.00 0.23 0.20 18 1013.8
20260508025249 7 0 0.0 0.0 0.00 0.23 0.20 24 1013.6
20260508023749 8 0 0.0 1.6 0.00 0.23 0.20 28 1013.3
20260508022249 8 0 0.0 1.6 0.00 0.23 0.20 27 1013.0
20260508020749 9 0 0.0 1.6 0.00 0.23 0.20 23 1012.9
20260508015249 10 0 0.0 0.0 0.00 0.23 0.20 32 1012.7
20260508013749 10 0 0.0 1.6 0.00 0.23 0.20 32 1012.4
20260508012249 11 0 0.0 1.6 0.00 0.25 0.20 35 1012.2
20260508010749 12 0 0.0 1.6 0.00 0.25 0.20 39 1011.9
20260508005249 12 0 0.0 1.6 0.00 0.25 0.20 39 1011.8
20260508003749 13 143 1.6 3.2 0.00 0.25 0.20 39 1011.6
20260508002249 13 143 4.8 4.8 0.00 0.25 0.20 40 1011.3